Voltar ao catálogo

DELTA 1 DEB

AtivoPO
NORAD 42562·DEBRIS·🇺🇸 United States

Lançado Jul 23, 1972 de Vandenberg Space Force Base

Loading…

Próximas Passagens (próximas 24 horas)

TLE

AtualizadoSource: Space-Track

Época: Sep 12, 2026, 09:21 UTC

1 42562U 72058JV  26255.38980420  .00000482  00000-0  10663-3 0  9998
2 42562  98.8041 109.2464 0152675 114.1783 247.5459 14.55292248677781

Acompanhe DELTA 1 DEB em tempo real com AllMySat

Download on the App Store